Ash Shahaniyah, Qatar

3:39 AM +03 on November 25, 2017 (GMT +0300)
Ash Shahaniyah

Weather History for WKQIR - May, 2013

Change the Weather History Date:

Thursday, May 2, 2013

  Actual Average Record
Temperature  
Mean Temperature 84 °F -  
Max Temperature 94 °F - - ()
Min Temperature 74 °F - - ()
Cooling Degree Days 19    
Growing Degree Days 34 (Base 50)    
Moisture  
Dew Point 66 °F    
Average Humidity 56    
Maximum Humidity 86    
Minimum Humidity 34    
Precipitation  
Precipitation 0.00 in - - ()
Sea Level Pressure  
Sea Level Pressure 29.77 in    
Wind  
Wind Speed 12 mph ()    
Max Wind Speed 22 mph    
Max Gust Speed 30 mph    
Visibility 6.2 miles    
Events Rain    
T = Trace of Precipitation, MM = Missing Value Source: Averaged Metar Reports

Daily Weather History Graph

Daily Weather History Graph

Search for Another Location

Airport or City:

Trip Planner

Search our weather history database for the weather conditions in past years. The results will help you decide how hot, cold, wet, or windy it might be!

Date:

Astronomy

May. 02, 2013 Rise Set
Actual Time 4:58 AM +03 6:06 PM +03
Civil Twilight 4:34 AM +03 6:30 PM +03
Nautical Twilight 4:05 AM +03 6:59 PM +03
Astronomical Twilight 3:36 AM +03 7:28 PM +03
Moon No Moon Rise 11:14 AM +03 (5/2)
Length of Visible Light 13h 56m
Length of Day
13h 08m
Waning Gibbous, 51% of the Moon is Illuminated
May 2
Waning Gibbous
May 2
Last Quarter
May 10
New
May 18
First Quarter
May 25
Full

Hourly Weather History & Observations

Time (+03) Temp. Heat Index Dew Point Humidity Pressure Visibility Wind Dir Wind Speed Gust Speed Precip Events Conditions
12:55 AM 77.5 °F - 70.7 °F 79% 29.75 in 6.2 mi ESE 11.5 mph - N/A   Clear
1:55 AM 77.0 °F - 71.2 °F 82% 29.74 in 6.2 mi SE 12.7 mph - N/A   Clear
2:55 AM 75.9 °F - 71.2 °F 85% 29.74 in 6.2 mi South 9.2 mph - N/A   Clear
3:55 AM 74.7 °F - 70.2 °F 86% 29.74 in 6.2 mi South 9.2 mph - N/A   Clear
4:55 AM 74.3 °F - 67.8 °F 80% 29.74 in 6.2 mi SSE 8.1 mph - N/A   Clear
5:55 AM 74.8 °F - 66.9 °F 76% 29.77 in 6.2 mi SSE 9.2 mph - N/A   Clear
6:55 AM 77.4 °F - 67.6 °F 72% 29.80 in 6.2 mi South 11.5 mph - N/A   Clear
7:55 AM 80.4 °F 82.6 °F 66.2 °F 62% 29.83 in 6.2 mi South 19.6 mph - N/A   Clear
8:55 AM 82.8 °F 85.1 °F 66.4 °F 58% 29.83 in 6.2 mi South 20.7 mph - N/A   Mostly Cloudy
9:55 AM 85.8 °F 87.9 °F 66.0 °F 51% 29.82 in 6.2 mi SSW 21.9 mph - N/A   Mostly Cloudy
10:26 AM 87.8 °F 89.4 °F 64.4 °F 46% 29.81 in 6.2 mi SSW 21.9 mph 28.8 mph N/A Rain Light Rain
10:36 AM 87.8 °F 89.4 °F 64.4 °F 46% 29.81 in 6.2 mi SSW 21.9 mph 28.8 mph N/A   Overcast
10:55 AM 89.4 °F 90.8 °F 64.0 °F 43% 29.80 in 6.2 mi South 21.9 mph 27.6 mph 0.00 in   Mostly Cloudy
11:55 AM 92.5 °F 93.3 °F 62.4 °F 37% 29.78 in 6.2 mi SSW 20.7 mph 29.9 mph N/A   Overcast
12:55 PM 91.8 °F 93.8 °F 64.9 °F 41% 29.76 in 6.2 mi SSW 19.6 mph 26.5 mph N/A   Mostly Cloudy
1:55 PM 92.7 °F 94.4 °F 64.0 °F 39% 29.75 in 6.2 mi South 17.3 mph 25.3 mph N/A   Scattered Clouds
2:55 PM 93.7 °F 94.5 °F 61.9 °F 35% 29.74 in 6.2 mi SSW 10.4 mph 20.7 mph N/A   Partly Cloudy
3:55 PM 94.5 °F 95.2 °F 61.7 °F 34% 29.73 in 6.2 mi South 13.8 mph - N/A   Clear
4:55 PM 93.4 °F 93.5 °F 60.8 °F 34% 29.73 in 6.2 mi SSW 10.4 mph - N/A   Clear
5:55 PM 91.8 °F 91.5 °F 60.3 °F 35% 29.73 in 6.2 mi SW 6.9 mph - N/A   Clear
6:55 PM 86.7 °F 89.0 °F 65.8 °F 50% 29.75 in 6.2 mi ESE 11.5 mph - N/A   Clear
7:55 PM 85.1 °F 86.9 °F 65.3 °F 51% 29.76 in 6.2 mi SE 9.2 mph - N/A   Clear
8:55 PM 83.5 °F 86.4 °F 67.8 °F 59% 29.78 in 6.2 mi ESE 6.9 mph - N/A   Clear
9:55 PM 83.3 °F 84.8 °F 64.6 °F 53% 29.78 in 6.2 mi ESE 3.5 mph - N/A   Clear
10:55 PM 82.4 °F 83.9 °F 64.0 °F 54% 29.78 in 6.2 mi SE 8.1 mph - N/A   Clear
11:55 PM 79.9 °F - 67.8 °F 66% 29.78 in 6.2 mi SSE 9.2 mph - N/A   Clear